#timestamp,LO_Frequency,Hit,StdDev 
1506020415.3,286047003.1,P
1506020435.1,286047003.5,N
1506020455.9,286047001.3,N
1506020475.7,286047003.3,N
1506020495.5,286047002.4,N
1506020515.3,286047001.0,N
1506020535.2,286046998.8,N
1506020555.0,286047001.4,N
1506020555.9,286047001.4,N
1506020575.7,286047004.2,N
1506020595.6,286047001.6,N
1506020615.4,286046999.2,N
1506020635.2,286046997.4,N
1506020655.1,286046994.9,N
1506020656.0,286046994.9,N
1506020675.8,286046996.9,N
1506020695.6,286046997.3,N
1506020715.5,286046993.3,N
1506020735.3,286046995.2,N
1506020755.1,286046998.0,N
1506020775.9,286046999.1,N
1506020795.7,286046997.7,N
1506020815.5,286046996.9,N
1506020835.3,286046997.1,N
1506020855.2,286046997.0,N
1506020875.9,286046996.9,N
1506020895.7,286046995.2,N
1506020915.6,286046996.0,N
1506020935.4,286046993.8,N
1506020955.2,286046993.2,N
1506020975.1,286046991.3,N
1506020976.0,286046991.3,N
1506020995.8,286046989.0,Y
1506021015.6,286046990.2,P
1506021035.5,286046992.9,N
1506021055.3,286046990.3,P
1506021075.1,286046991.6,N
1506021095.9,286046989.8,Y
1506021115.7,286046995.1,P
1506021135.5,286046995.2,P
1506021155.4,286046995.1,P
1506021175.2,286046993.5,Y
1506021195.0,286047000.5,P
1506021195.9,286047000.5,N
1506021215.8,286047002.7,N
1506021235.6,286047001.2,N
1506021255.4,286047000.0,N
1506021275.3,286047000.9,N
1506021295.1,286047001.0,N
1506021296.0,286047001.0,N
1506021315.8,286047001.1,N
1506021335.7,286047001.0,N
1506021355.5,286046998.4,N
1506021375.3,286046999.4,N
1506021395.2,286046999.1,N
1506021415.9,286046995.1,N
1506021435.7,286046993.3,Y
1506021455.6,286046995.8,P
1506021475.4,286046996.4,N
1506021495.2,286046996.4,N
1506021515.1,286046993.5,Y
1506021516.0,286046993.5,P
1506021535.8,286046997.0,N
1506021555.6,286046996.9,N
1506021575.5,286046999.1,N
1506021595.3,286046996.5,N
1506021615.1,286046996.7,N
1506021635.9,286046996.7,N
1506021655.7,286046997.9,N
1506021675.5,286046997.2,N
1506021695.3,286046996.1,N
1506021715.2,286046995.9,Y
1506021735.0,286046999.2,P
1506021735.9,286046999.2,N
1506021755.8,286046999.1,N
1506021775.6,286047001.1,N
1506021795.4,286046998.5,N
1506021815.2,286046998.4,N
1506021835.1,286046999.4,N
1506021836.0,286046999.4,N
1506021855.8,286046999.1,N
1506021875.6,286046997.0,N
1506021895.5,286046995.0,Y
1506021915.3,286046999.6,P
1506021935.1,286046996.8,P
1506021955.9,286046999.3,N
1506021975.7,286046998.7,N
1506021995.5,286046996.7,Y
1506022015.4,286046999.1,P
1506022035.2,286046998.3,P
1506022055.0,286047000.4,N
1506022055.9,286047000.4,N
1506022075.8,286047000.7,N
1506022095.6,286047000.4,N
1506022115.4,286047000.0,N
1506022135.3,286047001.2,N
1506022155.1,286046998.1,N
1506022156.0,286046998.1,N
1506022175.8,286047000.2,N
1506022195.7,286046998.2,N
1506022215.5,286046999.8,N
1506022235.3,286047002.0,N
1506022255.2,286047001.5,N
1506022275.9,286047002.7,N
1506022295.7,286046997.0,N
1506022315.5,286046999.7,N
1506022335.4,286047005.2,Y
1506022355.2,286047009.3,P
1506022375.0,286047010.3,N
1506022376.0,286047010.3,N
1506022395.8,286047010.8,N
1506022415.6,286047010.1,N
1506022435.5,286047013.8,Y
1506022455.3,286047006.5,P
1506022475.1,286047010.6,P
1506022495.8,286047010.7,P
1506022515.7,286047007.9,Y
1506022535.5,286046998.7,P
1506022555.4,286046998.3,N
1506022575.2,286046999.8,N
1506022595.0,286047001.5,N
1506022595.9,286047001.5,N
1506022615.7,286047004.3,N
1506022635.6,286047005.4,N
1506022655.4,286047006.7,N
1506022675.2,286047006.5,N
1506022695.1,286047006.6,N
1506022696.0,286047006.6,N
1506022715.8,286047006.9,N
1506022735.6,286047006.2,N
1506022755.5,286047007.8,N
1506022775.3,286047004.9,N
1506022795.1,286047008.2,N
1506022815.9,286047010.8,Y
1506022835.7,286047003.0,P
1506022855.5,286047004.0,P
1506022875.4,286047005.9,P
1506022895.2,286047007.3,Y
1506022915.0,286046998.2,P
1506022915.9,286046998.2,N
1506022935.8,286047000.6,N
1506022955.6,286046999.7,N
1506022975.4,286047002.5,N
1506022995.3,286046998.6,N
1506023015.1,286047002.2,N
1506023016.0,286047002.2,N
1506023035.8,286047001.3,N
1506023055.7,286047003.9,N
1506023075.5,286047004.9,N
1506023095.3,286047004.3,N
1506023115.1,286047002.3,N
1506023135.9,286047000.9,N
1506023155.7,286046999.2,N
1506023175.5,286046995.6,N
1506023195.4,286046994.4,N
1506023215.2,286046992.4,N
1506023235.2,286046993.0,N
1506023255.0,286046991.2,N
1506023255.9,286046991.2,N
1506023275.8,286046987.1,Y
1506023295.6,286046990.0,P
1506023315.4,286046991.0,N
1506023335.3,286046988.6,N
1506023355.1,286046989.1,N
1506023356.0,286046989.1,N
1506023375.8,286046991.1,N
1506023395.7,286046989.3,Y
1506023415.5,286046997.1,P
1506023435.3,286046997.4,N
1506023455.2,286046993.7,N
1506023475.9,286046993.4,N
1506023495.7,286046993.5,N
1506023515.6,286046993.6,N
1506023535.4,286046992.1,Y
1506023555.2,286046997.2,P
1506023575.1,286046996.8,N
1506023576.0,286046996.8,N
1506023595.8,286046999.6,N
1506023615.6,286046995.1,N
1506023635.5,286046996.1,N
1506023655.3,286046997.6,N
1506023675.1,286046995.3,Y
1506023695.9,286046998.2,P
1506023715.7,286047000.8,N
1506023735.5,286046999.0,N
1506023755.3,286046999.5,N
1506023775.2,286047000.4,N
1506023795.0,286047000.1,N
1506023795.9,286047000.1,N
1506023815.7,286047000.5,N
1506023835.6,286047000.4,N
1506023855.4,286047001.0,N
1506023875.2,286046998.2,N
1506023895.1,286046998.1,N
1506023896.0,286046998.1,N
1506023915.8,286046998.2,N
1506023935.6,286046998.8,N
1506023955.5,286046996.5,N
1506023975.3,286046996.6,N
1506023995.1,286046996.8,N
